Location: Newark
(42.0333°N, 13.0667°E)
Time: 02:20:37
(UTC+00:00)

ISS - Pass Details

Date: 23 November 2019
Orbit: 411 x 421 km, 51.6° (Epoch: 16 December)

Event Time Altitude Azimuth Distance (km) Brightness Sun altitude
Rises 18:11:09 0° 258° (WSW) 2,353 1.3 -27.6°
Reaches altitude 10° 18:13:22 10° 268° (W) 1,494 0.0 -28.0°
Enters shadow 18:14:39 19° 282° (WNW) 1,051 -1.0 -28.2°
